Flag for Australia

Past Weather in Mudgee, New South Wales, Australia — Yesterday and Last 2 Weeks

Now
61 °F

Overcast.


Feels Like: 61 °F
Forecast: 65 / 55 °F
Wind: 6 mph from East

Location: Mudgee Aws
Current Time: Sep 19, 2020 at 10:44:11 pm
Latest Report: Sep 19, 2020 at 9:00 pm
Visibility: N/A
Pressure30.11 "Hg
Humidity: 86%
Dew Point: 57 °F
Location of MudgeeLocation

Past Weather in Mudgee — Graph

°F

Mudgee Temperature Yesterday

Maximum temperature yesterday: 68 °F (at 2:00 pm)
Minimum temperature yesterday: 54 °F (at 6:00 am)
Average temperature yesterday: 61 °F

High & Low Weather Summary for the Past Weeks

 TemperatureHumidityPressure
High77 °F (Sep 17, 3:00 pm)100% (Sep 5, 4:00 am)30.45 "Hg (Sep 5, 4:00 am)
Low37 °F (Sep 12, 5:00 am)31% (Sep 14, 5:00 pm)29.99 "Hg (Sep 5, 2:00 am)
Average56 °F78%30.29 "Hg
* Reported Sep 4 9:00 pm — Sep 19 9:00 pm, Mudgee. Weather by CustomWeather, © 2020

Note: Actual official high and low records may vary slightly from our data, if they occured in-between our weather recording intervals... More about our weather records

Mudgee Weather History for the Previous 24 Hours

Scroll right to see more
 ConditionsComfort  
Time TempWeatherWind HumidityBarometerVisibility
9:00 pm
Sat, Sep 19
61 °FOvercast.6 mph86%30.11 "HgN/A
8:00 pm62 °FCool.7 mph82%30.11 "HgN/A
7:00 pm63 °FMild.7 mph75%30.09 "HgN/A
6:00 pm65 °FOvercast.5 mph65%30.10 "HgN/A
5:00 pm67 °FMild.5 mph57%30.10 "HgN/A
4:00 pm69 °FMild.9 mph52%30.12 "HgN/A
3:00 pm70 °FOvercast.10 mph51%30.13 "HgN/A
2:00 pm71 °FMild.12 mph49%30.15 "HgN/A
1:00 pm71 °FMild.12 mph48%30.18 "HgN/A
12:00 pm71 °FMild.14 mph51%30.22 "HgN/A
11:00 am69 °FMild.13 mph49%30.23 "HgN/A
10:00 am67 °FMild.12 mph58%30.28 "HgN/A
9:00 am65 °FMild.12 mph63%30.28 "HgN/A
8:00 am63 °FMild.8 mph72%30.30 "HgN/A
7:00 am57 °FCool.6 mph91%30.30 "HgN/A
6:00 am57 °FOvercast.5 mph90%30.30 "HgN/A
5:00 am56 °FCool.7 mph94%30.29 "HgN/A
4:00 am57 °FCool.8 mph93%30.28 "HgN/A
3:00 am57 °FOvercast.7 mph93%30.28 "HgN/A
2:00 am58 °FCool.7 mph89%30.30 "HgN/A
1:00 am59 °FCool.7 mph86%30.33 "HgN/A
12:00 am59 °FOvercast.6 mph85%30.35 "HgN/A
11:00 pm
Fri, Sep 18
58 °FCool.6 mph83%30.35 "HgN/A
10:00 pm59 °FCool.6 mph80%30.36 "HgN/A
Weather by CustomWeather, © 2020

See weather overview